Regional Weather Roundup
Issued by NWS Lake Charles, LA

Home | Current Version | Previous Version | Text Only | Print | Product List | Glossary On
Versions: 1 2 3 4 5 6 7 8 9 10 11 12 13 14 15 16 17 18 19 20 21 22 23 24 25 26 27 28 29 30 31 32 33 34 35 36 37 38 39 40 41 42 43 44 45 46 47 48 49 50
000
ASUS44 KLCH 300510
RWRLCH
RWRLCH
REGIONAL WEATHER ROUNDUP
NATIONAL WEATHER SERVICE LAKE CHARLES LA
1200 AM CDT WED JUL 30 2014

Note: "fair" indicates few or no clouds below 12,000 feet with no
significant weather and/or obstructions to visibility.


ACROSS SOUTHEAST TEXAS

CITY           SKY/WX    TMP DP  RH WIND       PRES   REMARKS
BEAUMONT       CLEAR     77  70  79 E3        30.04S
BEAUMONT CITY    N/A     76  71  83 NE3       30.05S
ORANGE         CLEAR     73  73 100 CALM      30.06S
JASPER         CLEAR     70  68  93 CALM      30.08R
$$

ACROSS CENTRAL LOUISIANA

CITY           SKY/WX    TMP DP  RH WIND       PRES   REMARKS
LEESVILLE      CLEAR     73  70  90 NE6       30.06R
FULLERTON        N/A     75  69  81 CALM      30.04R
ALEXANDRIA INT CLEAR     76  68  76 NE5       30.05R
ESLER FIELD    CLEAR     74  69  85 CALM      30.07R
DERIDDER         N/A     74  70  87 CALM      30.07S
OAKDALE        CLEAR     71  69  95 N5        30.06R
OPELOUSAS        N/A     71  70  98 N3        30.06R
$$

ACROSS SOUTHWEST AND SOUTH CENTRAL LOUISIANA

CITY           SKY/WX    TMP DP  RH WIND       PRES   REMARKS
SULPHUR        CLEAR     76  70  83 CALM      30.05S
LAKE CHARLES   CLEAR     74  71  91 CALM      30.04S
CHENNAULT INT  CLEAR     75  70  83 CALM      30.05F
CAMERON PHI    CLEAR     75  70  83 E5        30.05S
DEQUINCY         N/A     71  70  96 CALM      30.05S
JENNINGS         N/A     74  69  83 CALM      30.05S
LAFAYETTE      CLEAR     76  73  91 CALM      30.05S
NEW IBERIA     CLEAR     74  70  87 CALM      30.05S
ABBEVILLE        N/A     71  69  93 CALM      30.05S
PATTERSON      CLEAR     73  72  94 CALM      30.09S
SALT POINT       N/A     78  71  79 CALM      30.04S
$$

SELECTED SITES ACROSS THE REGION

CITY           SKY/WX    TMP DP  RH WIND       PRES   REMARKS
HOUSTON BUSH   CLEAR     75  74  96 CALM      30.05R
HOUSTON HOBBY  PTCLDY    78  73  84 CALM      30.04R
GALVESTON      PTCLDY    82  72  71 CALM      30.05S
COLLEGE STAT   PTCLDY    79  71  76 E5        30.06R
CONROE         CLEAR     74  72  93 CALM      30.07R
HUNTSVILLE     PTCLDY    75  68  78 CALM      30.06R
LUFKIN         CLEAR     76  72  87 CALM      30.06S
SHREVEPORT     PTCLDY    78  65  63 E9        30.06R
MONROE         CLEAR     72  63  73 E5        30.09S
NATCHEZ MS     CLEAR     72  64  78 NE3       30.09R
BATON ROUGE    CLEAR     75  67  76 NE6       30.06R
N.O. INTL ARPT PTCLDY    81  68  64 N13       30.04S
SLIDELL        CLEAR     74  68  81 CALM      30.05R
$$

MARINE REPORTS

STATION/POSITION TIME  TEMP    WIND        PRES    VSBY  WAVE
                       AIR SEA DIR/SP/G                  HT/PER
                 (UTC) (F)     (DEG/KT/KT) (MB)    (MI)  (FT/S)
BUOY 30 S HIGH I NOT AVBL
SEA RIM ST PARK  0400   78      70/  6/  7 1017.7R
PORT ARTHUR      0500      88  110/  5/  8 1017.4S
SABINE PASS N    0500   80 87   80/  5/  7 1017.5R
TEXAS POINT      0500   83 87   80/ 10/ 11 1017.5R
CALCASIEU PASS   0500   78 87   90/  7/  8 1018.5R
LK CHARLES BEACH 0500   80 87              1018.0F
MARSH ISLAND     0400   83      40/ 10/ 13   N/A
FRESH WATER LOCK 0500   78 88   10/  5/  6 1017.4S
AMERADA PASS     0500   77 85   50/  2/  5 1017.4R
$$


USA.gov is the U.S. government's official web portal to all federal, state and local government web resources and services.